Location: Culleoka
(33.1312°N, 96.4919°W)
Time: 14:59:56
(UTC+00:00)

Cosmos 1500 Rocket - Visible Passes

Search period start: 03 July 2022 00:00
Search period end: 13 July 2022 00:00
Orbit: 604 x 630 km, 82.5° (Epoch: 03 July)

Date Brightness Start Highest point End Pass type
(mag) Time Alt. Az. Time Alt. Az. Time Alt. Az.
03 Jul 3.5 09:31:04 39° S 09:32:41 84° W 09:37:09 10° N visible
04 Jul 6.2 08:10:49 11° ESE 08:12:00 12° E 08:13:50 10° ENE visible
04 Jul 4.1 09:47:56 32° WSW 09:49:20 41° W 09:53:33 10° N visible
05 Jul 5.4 08:27:39 23° ESE 08:28:22 24° E 08:31:56 10° NE visible
05 Jul 5.0 10:04:47 19° W 10:06:03 22° WNW 10:09:31 10° NNW visible
06 Jul 4.3 08:44:29 45° ESE 08:44:50 47° E 08:49:06 10° NNE visible
06 Jul 5.7 10:21:36 10° W 10:22:53 12° WNW 10:24:25 10° NW visible
07 Jul 3.4 09:01:16 84° SW 09:01:22 86° W 09:05:51 10° N visible
08 Jul 6.3 07:40:56 12° E 07:40:56 12° E 07:42:27 10° ENE visible
08 Jul 4.1 09:18:03 42° W 09:18:03 42° W 09:22:15 10° N visible
09 Jul 5.6 07:57:41 23° ENE 07:57:41 23° ENE 08:00:36 10° NE visible
09 Jul 5.0 09:34:49 22° WNW 09:34:49 22° WNW 09:38:15 10° NNW visible
10 Jul 4.8 08:14:26 39° ENE 08:14:26 39° ENE 08:17:47 10° NNE visible
10 Jul 5.7 09:51:33 12° WNW 09:51:33 12° WNW 09:53:13 10° NW visible
11 Jul 4.3 08:31:09 51° N 08:31:09 51° N 08:34:33 10° N visible
12 Jul 6.5 07:10:45 11° ENE 07:10:45 11° ENE 07:11:03 10° ENE visible
12 Jul 4.7 08:47:52 35° NW 08:47:52 35° NW 08:50:57 10° N visible
